Location: Cantarrana
(10.3575°N, 66.9340°W)
Time: 15:03:45
(UTC+00:00)

deb Chang Zheng 4 - Pass Details

Date: 08 December 2021
Orbit: 592 x 615 km, 98.6° (Epoch: 19 January)

Event Time Altitude Azimuth Distance (km) Brightness Sun altitude
Rises 22:25:32 0° 143° (SE) 2,875 6.8 -5.3°
Reaches altitude 10° 22:28:03 10° 129° (SE) 1,974 5.9 -5.8°
Maximum altitude 22:31:29 24° 76° (ENE) 1,298 4.6 -6.6°
Drops below altitude 10° 22:34:55 10° 22° (NNE) 1,979 5.7 -7.4°
Sets 22:37:26 0° 9° (N) 2,885 6.7 -8.0°
